Tracking 25701 objects as of 3-Jul-2022
HD Live streaming from Space Station
objects crossing your sky now

STARLINK-3648

Track STARLINK-3648 now!
10-day predictions
STARLINK-3648 is classified as:


NORAD ID: 51993
Int'l Code: 2022-025AP
Perigee: 545.8 km
Apogee: 547.9 km
Inclination: 53.2 °
Period: 95.4 minutes
Semi major axis: 6917 km
RCS: Unknown
Launch date: March 9, 2022
Source: United States (US)
Launch site: AIR FORCE EASTERN TEST RANGE (AFETR)
aabbcc
Your satellite tracking list
Your tracking list is empty




NASA's NSSDC Master Catalog

Two Line Element Set (TLE):
1 51993U 22025AP  22184.25001157  .00004257  00000-0  28523-3 0  9997
2 51993  53.2208 319.0223 0001536  63.5509  76.5502 15.08858690 19063
Source of the keplerian elements: AFSPC